Flag for France Weather past 2 weeks in Gustavia, Saint Barthélemy, France

Now
82 °F

Passing clouds.


Feels Like: 87 °F
Forecast: 81 / 85 °F
Wind: 8 mph from East

Location: Juliana Airport - Saint Maarten

Current Time: Aug 1, 2015 at 4:01:10 AM

Latest Report: Aug 1, 2015 at 3:00 AM


Visibility: N/A

Pressure: 30.01 "Hg

Humidity: 70%

Dew point: 72 °F

Location of GustaviaLocation

Historic Weather in Gustavia — Graph

°F

Gustavia temperature yesterday

Maximum temperature yesterday: 88 °F (at 4:00 PM)
Minimum temperature yesterday: 81 °F (at 2:00 AM)
Average temperature yesterday: 84 °F

Past Weeks' High & Low Weather Summary

 TemperatureHumidityPressure
High88 °F (Jul 17, 11:00 AM)89% (Jul 18, 7:00 AM)30.12 "Hg (Jul 18, 7:00 AM)
Low75 °F (Jul 18, 7:00 AM)55% (Jul 17, 3:00 PM)29.98 "Hg (Jul 20, 4:00 PM)
Average84 °F71%30.05 "Hg
* Reported Jul 17 4:00 AM — Aug 1 3:00 AM, Gustavia, Weather by CustomWeather, © 2015

Note: Actual official high and low records may vary slightly from our data, if they occured in-between our weather recording intervals... More about our weather records

Advertising

Gustavia weather history for previous 24 hours

 ConditionsComfort  
Time TempWeatherWind HumidityBarometerVisibility
3:00 AM
Sat, Aug 1
82 °FPassing clouds.8 mph70%30.01 "HgN/A
2:00 AM82 °FPassing clouds.7 mph74%30.01 "HgN/A
1:00 AM82 °FPassing clouds.10 mph70%30.04 "HgN/A
12:00 AM82 °FPassing clouds.9 mph70%30.04 "HgN/A
11:00 PM
Fri, Jul 31
82 °FPassing clouds.10 mph74%30.07 "HgN/A
10:00 PM82 °FPassing clouds.9 mph74%30.07 "HgN/A
9:00 PM82 °FPassing clouds.9 mph74%30.07 "HgN/A
8:00 PM82 °FPassing clouds.10 mph74%30.04 "HgN/A
7:00 PM82 °FPassing clouds.12 mph70%30.04 "HgN/A
6:00 PM84 °FPassing clouds.15 mph66%30.01 "HgN/A
5:00 PM86 °FPassing clouds.16 mph62%30.01 "HgN/A
4:00 PM88 °FPassing clouds.14 mph59%30.01 "HgN/A
3:00 PM86 °FPassing clouds.15 mph62%30.04 "HgN/A
2:00 PM86 °FScattered clouds.16 mph62%30.04 "HgN/A
1:00 PM86 °FScattered clouds.14 mph66%30.07 "HgN/A
12:00 PM86 °FPassing clouds.14 mph66%30.07 "HgN/A
11:00 AM86 °FScattered clouds.16 mph66%30.07 "HgN/A
10:00 AM86 °FScattered clouds.14 mph66%30.09 "HgN/A
9:00 AM86 °FScattered clouds.17 mph66%30.07 "HgN/A
8:00 AM84 °FScattered clouds.15 mph70%30.07 "HgN/A
7:00 AM82 °FScattered clouds.13 mph74%30.04 "HgN/A
6:00 AM82 °FPartly sunny.12 mph70%30.04 "HgN/A
5:00 AM82 °FPassing clouds.14 mph70%30.04 "HgN/A
Weather by CustomWeather, © 2015

See weather overviewHow to use our weather pages